Regional Weather Roundup
Issued by NWS

Home | Current Version | Previous Version | Graphics & Text | Print | Product List | Glossary On
Versions: 1 2 3 4 5 6 7 8 9 10 11 12 13 14 15 16 17 18 19 20 21 22 23 24 25 26 27 28 29 30 31 32 33 34 35 36 37 38 39 40 41 42 43 44 45 46 47 48 49 50
861
ASUS45 KBOI 120310
RWRID

IDAHO REGIONAL WEATHER ROUNDUP
NATIONAL WEATHER SERVICE BOISE ID
800 PM MST THU FEB 11 2016

NOTE: "FAIR" INDICATES FEW OR NO CLOUDS BELOW 12000 FEET
WITH NO SIGNIFICANT WEATHER AND/OR OBSTRUCTIONS TO VISIBILITY

IDZ012-014-120400-
SOUTHWEST IDAHO


CITY           SKY/WX    TMP DP  RH WIND       PRES   REMARKS
BOISE          PTCLDY    39  33  79 S3        30.34F
CALDWELL       PTCLDY    38  34  85 CALM      30.34F
MOUNTAIN HOME  PTCLDY    37  30  75 SE7       30.33S WCI  32
$$

IDZ016-017-120400-
SOUTHCENTRAL IDAHO


CITY           SKY/WX    TMP DP  RH WIND       PRES   REMARKS
BURLEY         MOCLDY    33  28  81 NE12      30.30F WCI  24
JEROME         PTCLDY    32  27  81 NE20      30.32R WCI  20
TWIN FALLS     MOCLDY    32  29  88 E7        30.32S WCI  26
$$

IDZ019>023-120400-
SOUTHEAST IDAHO


CITY           SKY/WX    TMP DP  RH WIND       PRES   REMARKS
IDAHO FALLS    CLOUDY    27  23  85 NW8       30.38S WCI  19
POCATELLO      CLOUDY    29  26  89 CALM      30.36F
REXBURG        CLOUDY    30  25  81 N3        30.38R
$$

IDZ006-010-011-018-031-032-120400-
CENTRAL IDAHO MOUNTAINS


CITY           SKY/WX    TMP DP  RH WIND       PRES   REMARKS
MCCALL         CLOUDY    35  32  88 CALM      30.27S
HAILEY         MOCLDY    36  28  75 NW7       30.35S WCI  30
STANLEY          N/A     39  27  62 S5        30.33F
SALMON         CLOUDY    28  25  86 CALM      30.37S
CHALLIS        MIX PCPN  30  26  85 W3        30.35R
$$

IDZ002-004-006-007-026-120400-
NORTHERN IDAHO


CITY           SKY/WX    TMP DP  RH WIND       PRES   REMARKS
LEWISTON       LGT RAIN  48  41  76 CALM      30.24R
LOWELL           N/A     42  38  85 N3        30.29R
COEUR D`ALENE  CLOUDY    41  36  81 NE8       30.22F
MULLAN PASS    CLOUDY    35  32  88 S6        30.24F WCI  30
$$




USA.gov is the U.S. government's official web portal to all federal, state and local government web resources and services.